Flag for Canada Weather past 2 weeks in Camrose, Alberta, Canada

Now
64 °F

Passing clouds.


Feels Like: 64 °F
Forecast: 58 / 82 °F
Wind: 10 mph from Southeast

Location: Edmonton International

Current Time: Aug 3, 2015 at 1:20:18 AM

Latest Report: Aug 3, 2015 at 12:00 AM


Visibility: 15 mi

Pressure: 29.92 "Hg (27.42 "Hg at 744m altitude)

Humidity: 68%

Dew point: 54 °F

Location of CamroseLocation

Historic Weather in Camrose — Graph

°F

Camrose temperature yesterday

Maximum temperature yesterday: 77 °F (at 3:00 PM)
Minimum temperature yesterday: 52 °F (at 12:00 AM)
Average temperature yesterday: 65 °F

Past Weeks' High & Low Weather Summary

 TemperatureHumidityPressure
High82 °F (Jul 31, 4:00 PM)100% (Jul 21, 3:00 AM)30.22 "Hg (Jul 21, 3:00 AM)
Low43 °F (Jul 23, 4:00 AM)34% (Jul 30, 5:00 PM)29.67 "Hg (Jul 20, 9:51 PM)
Average61 °F73%29.93 "Hg
* Reported Midnight between Jul 18 and Jul 19 — Midnight between Aug 2 and Aug 3, Camrose, Weather by CustomWeather, © 2015

Note: Actual official high and low records may vary slightly from our data, if they occured in-between our weather recording intervals... More about our weather records

Advertising

Camrose weather history for previous 24 hours

 ConditionsComfort  
Time TempWeatherWind HumidityBarometerVisibility
12:00 AM
Mon, Aug 3
64 °FPassing clouds.10 mph68%29.92 "Hg15 mi
11:00 PM
Sun, Aug 2
63 °FPassing clouds.9 mph77%29.93 "Hg15 mi
10:00 PM66 °FBroken clouds.9 mph73%29.93 "Hg15 mi
9:00 PM68 °FBroken clouds.9 mph73%29.93 "Hg15 mi
8:00 PM72 °FBroken clouds.8 mph65%29.93 "Hg15 mi
7:00 PM72 °FBroken clouds.8 mph65%29.95 "Hg15 mi
6:00 PM73 °FPartly sunny.9 mph57%29.96 "Hg15 mi
5:00 PM75 °FPartly sunny.10 mph54%29.96 "Hg15 mi
4:00 PM77 °FBroken clouds.12 mph51%29.97 "Hg15 mi
3:00 PM77 °FBroken clouds.9 mph47%29.98 "Hg15 mi
2:00 PM75 °FScattered clouds.10 mph54%30.00 "Hg15 mi
1:00 PM75 °FBroken clouds.7 mph50%30.01 "Hg15 mi
12:00 PM73 °FPartly sunny.5 mph57%30.02 "Hg15 mi
11:00 AM72 °FBroken clouds.6 mph61%30.03 "Hg15 mi
10:00 AM72 °FBroken clouds.7 mph53%30.03 "Hg15 mi
9:00 AM66 °FPartly sunny.6 mph73%30.03 "Hg15 mi
8:00 AM61 °FBroken clouds.3 mph83%30.04 "Hg15 mi
7:00 AM52 °FBroken clouds.5 mph94%30.05 "Hg15 mi
6:00 AM52 °FPartly cloudy.6 mph94%30.03 "Hg15 mi
5:00 AM54 °FPartly cloudy.5 mph94%30.03 "Hg15 mi
4:00 AM54 °FPartly cloudy.5 mph88%30.03 "Hg15 mi
3:00 AM54 °FPassing clouds.3 mph94%30.03 "Hg15 mi
2:00 AM52 °FPassing clouds.3 mph94%30.04 "Hg15 mi
1:00 AM52 °FPartly cloudy.5 mph94%30.04 "Hg15 mi
Weather by CustomWeather, © 2015

See weather overviewHow to use our weather pages